Tracking 18852 objects as of 23-Nov-2017
HD Live streaming from Space Station
objects crossing your sky now

COSMOS 1763

Track COSMOS 1763 now!
10-day predictions
COSMOS 1763 is classified as:


NORAD ID: 16860
Int'l Code: 1986-052A
Perigee: 748.7 km
Apogee: 795.0 km
Inclination: 74.0 °
Period: 100.1 minutes
Semi major axis: 7142 km
RCS: 2.3788 m2 (large)
Launch date: July 16, 1986
Source: Commonwealth of Independent States (former USSR) (CIS)
Launch site: PLESETSK MISSILE AND SPACE COMPLEX (PKMTR)
aabbcc
Your satellite tracking list
Your tracking list is empty




NASA's NSSDC Master Catalog

Two Line Element Set (TLE):
1 16860U 86052A   17326.85161650  .00000034  00000-0  19882-4 0  9992
2 16860  74.0337 213.5137 0032416 264.6366  95.1089 14.38128285644264
Source of the keplerian elements: AFSPC